KB1DML-3 Weather Reports


Display with metric or nautical units.
time (UTC)temp
F
wind
direction
speed
MPH
gust
MPH
rain 1hr
in
rain 24hr
in
rain mn
in
humidity
%
barometer
mb
20260901054016 67 248 11.0 14.0 0.00 0.00 0.00 85 1015.6
20260901053515 67 248 11.0 16.0 0.00 0.00 0.00 84 1015.5
20260901053016 67 225 12.0 16.0 0.00 0.00 0.00 84 1015.4
20260901052516 67 225 12.0 15.0 0.00 0.00 0.00 84 1015.3
20260901052036 67 225 12.0 16.0 0.00 0.00 0.00 84 1015.3
20260901051516 67 225 11.0 16.0 0.00 0.00 0.00 84 1015.4
20260901051016 68 225 12.0 17.0 0.00 0.00 0.00 84 1015.5
20260901050516 68 225 12.0 16.0 0.00 0.00 0.00 84 1015.6
20260901050015 68 225 12.0 17.0 0.00 0.00 0.00 84 1015.7
20260901045536 68 248 13.0 17.0 0.00 0.00 0.00 84 1015.6
20260901045016 68 225 13.0 17.0 0.00 0.00 0.00 84 1015.6
20260901044516 68 248 12.0 17.0 0.00 0.00 0.00 84 1015.6
20260901044036 68 225 13.0 17.0 0.00 0.00 0.00 84 1015.6
20260901043516 68 248 13.0 16.0 0.00 0.00 0.00 84 1015.8
20260901043036 68 248 13.0 17.0 0.00 0.00 0.00 84 1015.8
20260901042516 68 225 13.0 18.0 0.00 0.00 0.00 84 1015.8
20260901042016 68 225 12.0 16.0 0.00 0.00 0.00 84 1015.7
20260901041516 68 225 12.0 17.0 0.00 0.00 0.00 84 1015.7
20260901041015 68 225 9.0 17.0 0.00 0.00 0.00 84 1015.8
20260901040516 68 225 10.0 17.0 0.00 0.00 0.00 84 1015.9
20260901040016 68 225 10.0 16.0 0.00 0.00 0.00 84 1015.9
20260901035536 68 225 10.0 16.0 0.00 0.00 0.00 84 1015.9
20260901035016 68 225 8.0 17.0 0.00 0.00 0.00 84 1015.9
20260901034516 68 225 8.0 14.0 0.00 0.00 0.00 84 1015.9
20260901034036 68 225 9.0 14.0 0.00 0.00 0.00 84 1015.9
20260901033516 68 225 11.0 18.0 0.00 0.00 0.00 84 1015.8
20260901033016 68 225 11.0 18.0 0.00 0.00 0.00 84 1015.9
20260901032537 68 225 11.0 17.0 0.00 0.00 0.00 83 1015.9
20260901032016 68 225 12.0 17.0 0.00 0.00 0.00 83 1015.8
20260901031516 68 225 13.0 18.0 0.00 0.00 0.00 83 1015.7
20260901031036 68 225 12.0 18.0 0.00 0.00 0.00 84 1015.8
20260901030516 68 225 12.0 18.0 0.00 0.00 0.00 84 1015.8
20260901030016 68 225 13.0 19.0 0.00 0.00 0.00 84 1015.8
20260901025516 68 225 12.0 16.0 0.00 0.00 0.00 84 1015.8
20260901025016 68 225 12.0 17.0 0.00 0.00 0.00 84 1015.9
20260901024516 68 225 13.0 18.0 0.00 0.00 0.00 84 1015.9
20260901024016 68 225 14.0 19.0 0.00 0.00 0.00 83 1015.9
20260901023516 68 225 13.0 17.0 0.00 0.00 0.00 83 1016.0
20260901023016 68 225 14.0 18.0 0.00 0.00 0.00 83 1015.9
20260901022516 68 203 15.0 19.0 0.00 0.00 0.00 83 1015.9
20260901022036 68 203 15.0 18.0 0.00 0.00 0.00 82 1015.8
20260901021516 68 203 15.0 18.0 0.00 0.00 0.00 82 1015.8
20260901021016 68 203 16.0 19.0 0.00 0.00 0.00 82 1015.9
20260901020516 68 203 16.0 18.0 0.00 0.00 0.00 81 1015.9
20260901020016 68 203 16.0 19.0 0.00 0.00 0.00 81 1016.0
20260901015536 68 203 15.0 18.0 0.00 0.00 0.00 81 1016.0
20260901015016 68 203 16.0 20.0 0.00 0.00 0.00 80 1016.1
20260901014516 68 203 17.0 20.0 0.00 0.00 0.00 80 1016.1
20260901014016 68 203 17.0 20.0 0.00 0.00 0.00 79 1016.0
20260901013516 68 203 16.0 19.0 0.00 0.00 0.00 79 1016.0
20260901013016 68 203 16.0 19.0 0.00 0.00 0.00 78 1016.0
20260901012516 68 203 18.0 21.0 0.00 0.00 0.00 77 1016.0
20260901012016 68 203 18.0 21.0 0.00 0.00 0.00 77 1016.0
20260901011516 69 203 18.0 22.0 0.00 0.00 0.00 76 1016.0
20260901011016 69 203 19.0 22.0 0.00 0.00 0.00 75 1016.0
20260901010516 69 203 18.0 21.0 0.00 0.00 0.00 75 1016.0
20260901010016 69 203 17.0 20.0 0.00 0.00 0.00 75 1016.0
20260901005516 69 203 17.0 21.0 0.00 0.00 0.00 74 1016.0
20260901005016 69 203 15.0 20.0 0.00 0.00 0.00 74 1016.1
20260901004516 69 203 16.0 18.0 0.00 0.00 0.00 74 1016.1
20260901004016 69 203 14.0 17.0 0.00 0.00 0.00 74 1016.0
20260901003516 69 203 15.0 18.0 0.00 0.00 0.00 74 1016.1
20260901003016 69 203 14.0 17.0 0.00 0.00 0.00 73 1016.0
20260901002516 69 203 14.0 17.0 0.00 0.00 0.00 73 1016.0
20260901002016 69 203 14.0 17.0 0.00 0.00 0.00 74 1016.2
20260901001516 68 203 14.0 18.0 0.00 0.00 0.00 75 1016.0
20260901001016 68 203 15.0 17.0 0.00 0.00 0.00 75 1016.0
20260901000516 68 203 14.0 17.0 0.00 0.00 0.00 76 1016.1
20260901000015 68 203 15.0 18.0 0.00 0.00 0.00 75 1016.1
20260831235516 68 203 15.0 18.0 0.00 0.00 0.00 74 1016.1
20260831235016 69 203 13.0 16.0 0.00 0.00 0.00 74 1016.2
20260831234557 68 203 14.0 17.0 0.00 0.00 0.00 73 1016.2
20260831234015 68 203 15.0 18.0 0.00 0.00 0.00 72 1016.2
20260831233515 68 203 15.0 17.0 0.00 0.00 0.00 73 1016.1
20260831233016 68 203 15.0 17.0 0.00 0.00 0.00 71 1016.2
20260831232516 68 203 15.0 18.0 0.00 0.00 0.00 72 1016.3
20260831232016 68 203 16.0 18.0 0.00 0.00 0.00 72 1016.3
20260831231515 68 203 15.0 17.0 0.00 0.00 0.00 73 1016.2
20260831231016 68 203 16.0 18.0 0.00 0.00 0.00 72 1016.3
20260831230515 68 203 15.0 18.0 0.00 0.00 0.00 72 1016.3
20260831230016 68 203 16.0 18.0 0.00 0.00 0.00 71 1016.3
20260831225516 68 203 15.0 18.0 0.00 0.00 0.00 71 1016.3
20260831225016 68 203 15.0 18.0 0.00 0.00 0.00 72 1016.4
20260831224515 69 203 14.0 17.0 0.00 0.00 0.00 71 1016.4
20260831224015 68 203 14.0 18.0 0.00 0.00 0.00 71 1016.4
20260831223536 68 203 14.0 16.0 0.00 0.00 0.00 72 1016.3
20260831223015 69 203 13.0 16.0 0.00 0.00 0.00 72 1016.3
20260831222516 68 180 13.0 15.0 0.00 0.00 0.00 70 1016.4
20260831222035 68 180 14.0 16.0 0.00 0.00 0.00 71 1016.4
20260831221516 68 180 14.0 17.0 0.00 0.00 0.00 72 1016.4
20260831221058 68 180 14.0 18.0 0.00 0.00 0.00 72 1016.4
20260831220515 68 180 15.0 17.0 0.00 0.00 0.00 73 1016.4
20260831220015 68 180 14.0 16.0 0.00 0.00 0.00 72 1016.4
20260831215536 68 180 14.0 17.0 0.00 0.00 0.00 70 1016.3
20260831215056 68 180 14.0 17.0 0.00 0.00 0.00 70 1016.4
20260831214515 68 180 13.0 17.0 0.00 0.00 0.00 71 1016.5
20260831214015 68 180 13.0 15.0 0.00 0.00 0.00 71 1016.6
20260831213515 68 180 14.0 16.0 0.00 0.00 0.00 69 1016.7
20260831213016 68 180 15.0 17.0 0.00 0.00 0.00 71 1016.7
20260831212515 68 180 14.0 17.0 0.00 0.00 0.00 70 1016.7
20260831212015 68 180 14.0 17.0 0.00 0.00 0.00 71 1016.7
20260831211516 68 180 14.0 17.0 0.00 0.00 0.00 70 1016.8
20260831211015 68 180 13.0 17.0 0.00 0.00 0.00 70 1016.8
20260831210515 69 203 14.0 17.0 0.00 0.00 0.00 69 1016.8
20260831210015 68 203 15.0 18.0 0.00 0.00 0.00 69 1016.8
20260831205515 68 180 15.0 17.0 0.00 0.00 0.00 69 1016.8
20260831205017 69 180 14.0 16.0 0.00 0.00 0.00 69 1016.9
20260831204537 69 203 14.0 17.0 0.00 0.00 0.00 69 1016.9
20260831204015 68 180 14.0 16.0 0.00 0.00 0.00 68 1016.9
20260831203515 68 180 13.0 15.0 0.00 0.00 0.00 69 1017.0
20260831203015 68 180 13.0 15.0 0.00 0.00 0.00 70 1017.0
20260831202556 68 180 13.0 15.0 0.00 0.00 0.00 68 1016.9
20260831202015 68 180 13.0 15.0 0.00 0.00 0.00 69 1016.9
20260831201515 68 180 13.0 15.0 0.00 0.00 0.00 68 1016.9
20260831201016 68 180 12.0 15.0 0.00 0.00 0.00 69 1017.0
20260831200516 68 180 13.0 15.0 0.00 0.00 0.00 69 1016.9
20260831200015 68 180 12.0 15.0 0.00 0.00 0.00 69 1016.9
20260831195537 68 180 12.0 15.0 0.00 0.00 0.00 68 1016.9
20260831195016 68 180 11.0 14.0 0.00 0.00 0.00 68 1016.9
20260831194556 68 180 12.0 15.0 0.00 0.00 0.00 69 1016.9
20260831194017 68 180 12.0 15.0 0.00 0.00 0.00 68 1016.9
20260831193518 69 180 12.0 15.0 0.00 0.00 0.00 69 1016.9
20260831193017 68 180 11.0 14.0 0.00 0.00 0.00 68 1016.9
20260831192517 68 180 11.0 14.0 0.00 0.00 0.00 69 1017.0
20260831192017 68 158 11.0 14.0 0.00 0.00 0.00 68 1017.0
20260831191517 68 158 12.0 14.0 0.00 0.00 0.00 69 1017.2
20260831191038 68 180 11.0 16.0 0.00 0.00 0.00 69 1017.2
20260831190517 69 180 10.0 14.0 0.00 0.00 0.00 69 1017.6
20260831190016 69 180 9.0 13.0 0.00 0.00 0.00 69 1017.6
20260831185517 68 180 11.0 14.0 0.00 0.00 0.00 69 1017.6
20260831185018 68 180 10.0 14.0 0.00 0.00 0.00 70 1017.7
20260831184517 68 180 10.0 13.0 0.00 0.00 0.00 69 1017.6
20260831184017 68 180 10.0 13.0 0.00 0.00 0.00 69 1017.6
20260831183517 68 180 10.0 13.0 0.00 0.00 0.00 70 1017.7
20260831183038 67 180 10.0 12.0 0.00 0.00 0.00 70 1017.7
20260831182517 67 180 10.0 12.0 0.00 0.00 0.00 69 1017.8
20260831182017 68 180 10.0 14.0 0.00 0.00 0.00 70 1017.7
20260831181537 67 180 10.0 12.0 0.00 0.00 0.00 69 1017.9
20260831181018 69 180 8.0 12.0 0.00 0.00 0.00 68 1017.8
20260831180538 68 158 8.0 13.0 0.00 0.00 0.00 69 1017.8
20260831180017 67 180 10.0 13.0 0.00 0.00 0.00 69 1017.9
20260831175538 67 180 9.0 11.0 0.00 0.00 0.00 69 1017.9
20260831175017 67 180 10.0 13.0 0.00 0.00 0.00 69 1018.0
20260831174518 67 180 10.0 12.0 0.00 0.00 0.00 68 1018.0
20260831174118 67 180 9.0 11.0 0.00 0.00 0.00 67 1018.1
20260831173538 67 180 9.0 11.0 0.00 0.00 0.00 67 1018.2
20260831173017 67 180 9.0 14.0 0.00 0.00 0.00 67 1018.2
20260831172518 67 180 8.0 11.0 0.00 0.00 0.00 67 1018.2
20260831172017 68 180 8.0 11.0 0.00 0.00 0.00 65 1018.2
20260831171517 68 180 8.0 14.0 0.00 0.00 0.00 68 1018.2
20260831171017 67 180 8.0 10.0 0.00 0.00 0.00 67 1018.3
20260831170517 68 180 8.0 11.0 0.00 0.00 0.00 67 1018.3
20260831170017 68 180 7.0 10.0 0.00 0.00 0.00 66 1018.4
20260831165518 68 180 7.0 10.0 0.00 0.00 0.00 67 1018.4
20260831165017 69 180 7.0 10.0 0.00 0.00 0.00 67 1018.4
20260831164517 69 158 7.0 11.0 0.00 0.00 0.00 66 1018.4
20260831164038 70 158 6.0 9.0 0.00 0.00 0.00 66 1018.5
20260831163537 70 113 5.0 8.0 0.00 0.00 0.00 65 1018.5
20260831163017 70 113 6.0 9.0 0.00 0.00 0.00 66 1018.5
20260831162517 70 113 5.0 8.0 0.00 0.00 0.00 66 1018.6
20260831162017 69 135 5.0 8.0 0.00 0.00 0.00 66 1018.6
20260831161517 70 113 6.0 8.0 0.00 0.00 0.00 66 1018.7
20260831161017 69 113 6.0 8.0 0.00 0.00 0.00 68 1018.7
20260831160538 69 113 6.0 9.0 0.00 0.00 0.00 68 1018.7
20260831160037 68 68 6.0 8.0 0.00 0.00 0.00 68 1018.8
20260831155517 68 68 7.0 10.0 0.00 0.00 0.00 68 1018.8
20260831155017 69 113 7.0 10.0 0.00 0.00 0.00 68 1018.8
20260831154517 69 113 6.0 8.0 0.00 0.00 0.00 68 1018.9
20260831154017 68 90 5.0 9.0 0.00 0.00 0.00 69 1018.9
20260831153517 68 68 5.0 9.0 0.00 0.00 0.00 69 1018.9
20260831153018 67 90 5.0 9.0 0.00 0.00 0.00 69 1019.0
20260831152517 68 68 7.0 11.0 0.00 0.00 0.00 69 1018.9
20260831152017 68 68 5.0 8.0 0.00 0.00 0.00 70 1018.9
20260831151517 67 90 5.0 8.0 0.00 0.00 0.00 70 1019.0
20260831151017 68 90 6.0 9.0 0.00 0.00 0.00 69 1018.9
20260831150517 68 68 7.0 12.0 0.00 0.00 0.00 69 1018.8
20260831150017 69 68 6.0 11.0 0.00 0.00 0.00 69 1018.8
20260831145537 69 68 5.0 11.0 0.00 0.00 0.00 70 1018.8
20260831145017 69 68 7.0 13.0 0.00 0.00 0.00 69 1018.7
20260831144517 69 45 7.0 12.0 0.00 0.00 0.00 69 1018.8
20260831144017 69 45 8.0 13.0 0.00 0.00 0.00 69 1018.7
20260831143517 69 45 8.0 12.0 0.00 0.00 0.00 69 1018.7
20260831143017 69 45 7.0 12.0 0.00 0.00 0.00 69 1018.7
20260831142518 69 45 8.0 12.0 0.00 0.00 0.00 69 1018.7
20260831142017 69 45 8.0 12.0 0.00 0.00 0.00 70 1018.6
20260831141517 69 45 8.0 11.0 0.00 0.00 0.00 69 1018.6
20260831141017 69 45 7.0 11.0 0.00 0.00 0.00 70 1018.7
20260831140517 69 45 6.0 12.0 0.00 0.00 0.00 69 1018.6
20260831140016 69 45 5.0 12.0 0.00 0.00 0.00 70 1018.6
20260831135517 69 45 8.0 13.0 0.00 0.00 0.00 70 1018.7
20260831135017 69 45 7.0 13.0 0.00 0.00 0.00 70 1018.5
20260831134517 69 45 8.0 11.0 0.00 0.00 0.00 70 1018.6
20260831134038 69 45 7.0 12.0 0.00 0.00 0.00 70 1018.7
20260831133517 69 68 5.0 10.0 0.00 0.00 0.00 69 1018.7
20260831133017 69 68 5.0 9.0 0.00 0.00 0.00 69 1018.8
20260831132517 68 68 5.0 11.0 0.00 0.00 0.00 70 1018.6
20260831132017 68 45 7.0 12.0 0.00 0.00 0.00 71 1018.5
20260831131517 68 45 8.0 13.0 0.00 0.00 0.00 71 1018.4
20260831131017 68 45 7.0 11.0 0.00 0.00 0.00 71 1018.3
20260831130516 68 45 7.0 11.0 0.00 0.00 0.00 71 1018.4
20260831130017 68 45 7.0 12.0 0.00 0.00 0.00 71 1018.4
20260831125537 68 45 8.0 13.0 0.00 0.00 0.00 71 1018.3
20260831125017 68 45 8.0 12.0 0.00 0.00 0.00 71 1018.2
20260831124537 68 45 10.0 14.0 0.00 0.00 0.00 71 1018.2
20260831124016 67 45 10.0 14.0 0.00 0.00 0.00 72 1018.0
20260831123516 67 68 10.0 14.0 0.00 0.00 0.00 72 1018.0
20260831123017 67 68 11.0 16.0 0.00 0.00 0.00 72 1018.0
20260831122517 67 45 11.0 14.0 0.00 0.00 0.00 73 1017.9
20260831122016 67 68 10.0 15.0 0.00 0.00 0.00 72 1017.9
20260831121517 67 68 10.0 15.0 0.00 0.00 0.00 73 1017.9
20260831121058 67 45 12.0 16.0 0.00 0.00 0.00 73 1017.8
20260831120516 67 45 12.0 18.0 0.00 0.00 0.00 73 1017.7
20260831120016 67 45 13.0 16.0 0.00 0.00 0.00 73 1017.7
20260831115516 67 45 13.0 18.0 0.00 0.00 0.00 73 1017.7
20260831115016 67 45 12.0 17.0 0.00 0.00 0.00 73 1017.6
20260831114516 67 45 14.0 20.0 0.00 0.00 0.00 72 1017.6
20260831114016 67 45 15.0 21.0 0.00 0.00 0.00 73 1017.6
20260831113517 67 68 13.0 19.0 0.00 0.00 0.00 73 1017.7
20260831113037 67 45 15.0 21.0 0.00 0.00 0.00 72 1017.7
20260831112517 67 45 16.0 20.0 0.00 0.00 0.00 73 1017.6
20260831112037 67 45 14.0 19.0 0.00 0.00 0.00 73 1017.7
20260831111517 66 45 15.0 20.0 0.00 0.00 0.00 73 1017.7
20260831111016 66 45 18.0 21.0 0.00 0.00 0.00 73 1017.6
20260831110516 66 45 15.0 20.0 0.00 0.00 0.00 73 1017.6
20260831110017 66 45 14.0 20.0 0.00 0.00 0.00 74 1017.6
20260831105557 66 45 15.0 21.0 0.00 0.00 0.00 73 1017.7
20260831105016 66 45 15.0 21.0 0.00 0.00 0.00 73 1017.6
20260831104516 66 45 16.0 22.0 0.00 0.00 0.00 73 1017.4
20260831104016 66 45 14.0 19.0 0.00 0.00 0.00 73 1017.3
20260831103537 66 45 13.0 16.0 0.00 0.00 0.00 74 1017.3
20260831103017 66 45 13.0 18.0 0.00 0.00 0.00 74 1017.3
20260831102516 66 45 15.0 22.0 0.00 0.00 0.00 73 1017.2
20260831102016 66 45 16.0 21.0 0.00 0.00 0.00 73 1017.0
20260831101516 66 45 18.0 23.0 0.00 0.00 0.00 72 1017.0
20260831101016 66 45 18.0 22.0 0.00 0.00 0.00 72 1017.0
20260831100516 66 45 16.0 21.0 0.00 0.00 0.00 72 1016.9
20260831100016 66 45 15.0 19.0 0.00 0.00 0.00 72 1016.8
20260831095517 66 45 15.0 20.0 0.00 0.00 0.00 72 1016.8
20260831095037 66 45 16.0 22.0 0.00 0.00 0.00 71 1016.8
20260831094516 66 45 15.0 21.0 0.00 0.00 0.00 71 1016.6
20260831094017 66 45 15.0 21.0 0.00 0.00 0.00 71 1016.6
20260831093516 67 45 16.0 22.0 0.00 0.00 0.00 72 1016.6
20260831093036 67 45 16.0 23.0 0.00 0.00 0.00 71 1016.5
20260831092536 67 45 18.0 22.0 0.00 0.00 0.00 71 1016.4
20260831092037 67 45 16.0 21.0 0.00 0.00 0.00 71 1016.4
20260831091537 67 45 19.0 24.0 0.00 0.00 0.00 71 1016.4
20260831091016 67 45 18.0 24.0 0.00 0.00 0.00 71 1016.3
20260831090516 67 45 16.0 21.0 0.00 0.00 0.00 71 1016.3
20260831090016 67 45 16.0 27.0 0.00 0.00 0.00 70 1016.2
20260831085557 67 45 19.0 27.0 0.00 0.00 0.00 70 1016.2
20260831085016 67 45 16.0 23.0 0.00 0.00 0.00 71 1016.2
20260831084516 67 45 15.0 20.0 0.00 0.00 0.00 75 1016.3
20260831084016 67 45 14.0 18.0 0.00 0.00 0.00 76 1016.2
20260831083537 67 45 14.0 18.0 0.00 0.00 0.00 75 1016.2
20260831083016 67 45 14.0 19.0 0.00 0.00 0.00 76 1016.1
20260831082536 67 23 14.0 18.0 0.00 0.00 0.00 76 1016.0
20260831082016 67 45 13.0 16.0 0.00 0.00 0.00 76 1016.0
20260831081536 67 45 12.0 18.0 0.00 0.00 0.00 76 1015.9
20260831081016 67 45 12.0 16.0 0.00 0.00 0.00 75 1015.9
20260831080517 67 45 11.0 16.0 0.00 0.00 0.00 75 1015.8
20260831080017 67 45 11.0 14.0 0.00 0.00 0.00 75 1015.8
20260831075536 67 45 11.0 15.0 0.00 0.00 0.00 74 1015.7
20260831075057 67 45 11.0 15.0 0.00 0.00 0.00 74 1015.7
20260831074516 67 45 12.0 15.0 0.00 0.00 0.00 74 1015.7
20260831074017 67 45 10.0 14.0 0.00 0.00 0.00 74 1015.6
20260831073516 67 45 10.0 14.0 0.00 0.00 0.00 75 1015.6
20260831073036 67 45 10.0 13.0 0.00 0.00 0.00 75 1015.6
20260831072516 67 45 10.0 14.0 0.00 0.00 0.00 76 1015.7
20260831072016 67 45 9.0 13.0 0.00 0.00 0.00 77 1015.6
20260831071516 67 45 9.0 12.0 0.00 0.00 0.00 76 1015.7
20260831071016 67 45 9.0 13.0 0.00 0.00 0.00 77 1015.6
20260831070516 67 45 8.0 11.0 0.00 0.00 0.00 77 1015.6
20260831070016 67 45 7.0 10.0 0.00 0.00 0.00 77 1015.5
20260831065516 67 45 8.0 12.0 0.00 0.00 0.00 77 1015.5
20260831065016 67 45 9.0 13.0 0.00 0.00 0.00 77 1015.4
20260831064517 67 45 10.0 14.0 0.00 0.00 0.00 77 1015.5
20260831064016 68 45 10.0 14.0 0.00 0.00 0.00 78 1015.4
20260831063516 68 45 10.0 13.0 0.00 0.00 0.00 78 1015.3
20260831063016 68 45 10.0 14.0 0.00 0.00 0.00 78 1015.3
20260831062516 68 45 11.0 14.0 0.00 0.00 0.00 78 1015.3
20260831062016 68 45 11.0 14.0 0.00 0.00 0.00 78 1015.2
20260831061536 68 45 10.0 14.0 0.00 0.00 0.00 78 1015.2
20260831061036 68 45 11.0 15.0 0.00 0.00 0.00 79 1015.2
20260831060516 68 45 10.0 16.0 0.00 0.00 0.00 79 1015.2
20260831060017 68 45 10.0 13.0 0.00 0.00 0.00 80 1015.1
20260831055536 68 45 10.0 13.0 0.00 0.00 0.00 80 1015.1
20260831055036 68 45 11.0 14.0 0.00 0.00 0.00 80 1015.0
20260831054516 68 23 11.0 14.0 0.00 0.00 0.00 81 1015.0